Wind_Speed
38 40 36 23 27 30 34 36 35 34 33 33 28 26 25 22 19 10 4 13 9 12 6 5 14 18 21 23 23 22 22 21 22 22 20 18 18 15 13 12 10 11 8 7
44 39 28 33 34 31 35 36 34 35 35 34 32 24 26 26 20 19 15 4 8 5 7 5 13 18 22 24 27 23 23 23 24 23 22 21 19 17 15 12 11 11 8 7
48 34 37 37 36 34 35 35 33 30 37 36 37 34 30 23 24 20 13 6 6 4 7 5 10 18 23 24 26 26 24 24 24 24 22 20 17 15 14 13 12 9 8 6
54 43 44 42 41 38 36 26 32 35 42 42 40 39 29 30 20 19 19 15 8 2 2 6 12 15 20 25 28 27 27 25 24 23 23 23 22 18 13 11 10 7 7 5
53 48 51 47 39 38 28 31 35 37 45 46 45 46 33 35 32 23 19 19 13 4 2 6 13 16 23 27 27 27 27 26 24 25 26 24 20 16 13 12 10 8 6 6
58 57 55 46 40 43 35 38 39 42 48 59 53 52 44 34 24 22 20 21 18 9 5 4 15 19 22 25 27 25 26 25 23 25 25 22 18 15 13 13 11 8 8 7
68 61 60 57 51 49 44 46 45 51 59 62 48 56 47 27 30 25 23 18 15 11 8 4 12 18 21 22 24 22 23 25 23 24 24 21 17 16 14 12 10 9 9 8
76 70 65 62 59 52 51 49 53 56 58 56 47 58 40 24 28 31 33 23 19 15 11 9 7 18 22 26 26 22 20 23 25 24 23 20 19 17 15 12 11 10 10 9
78 77 71 69 61 53 54 58 48 50 53 52 50 54 36 31 33 33 38 30 22 19 18 16 11 14 23 24 27 24 21 23 25 25 23 21 20 17 16 15 14 12 11 10
81 81 70 70 64 58 54 50 50 54 56 58 52 52 44 34 28 30 30 36 29 26 27 20 18 15 22 25 28 29 25 24 25 26 23 21 19 18 16 14 13 14 12 9
73 85 71 66 71 61 59 58 55 48 54 54 46 49 43 35 30 23 23 31 31 22 29 27 20 17 23 27 28 28 25 23 24 26 24 22 20 18 14 14 13 11 9 10
62 82 76 70 63 63 61 59 57 55 55 54 48 41 42 39 35 29 26 30 26 23 27 25 24 19 22 27 30 29 25 23 23 25 25 25 23 19 16 16 13 9 10 11
55 69 79 59 56 68 65 61 56 53 49 48 45 31 39 43 46 39 31 32 33 27 32 28 29 23 20 28 30 29 26 22 22 25 27 26 23 20 20 18 13 9 8 6
62 52 70 65 64 70 70 62 59 54 52 50 43 30 34 44 38 41 40 43 41 40 35 35 33 26 22 29 28 28 27 25 23 25 27 26 25 24 24 20 14 11 10 9
65 51 59 73 69 66 69 62 61 62 55 50 39 30 39 43 38 37 37 39 37 43 41 34 30 31 25 28 30 29 29 27 24 23 25 26 28 29 26 20 18 16 13 12
64 56 61 71 67 64 68 64 62 61 58 49 38 38 46 42 38 32 36 27 26 43 39 35 30 34 28 25 29 29 29 27 25 25 25 28 30 27 23 24 22 17 14 12
64 46 65 65 69 61 58 67 65 58 55 49 41 46 45 38 38 37 35 27 19 25 29 28 28 32 26 24 23 25 27 28 27 28 29 28 26 26 25 24 20 17 16 14
61 46 65 57 68 56 62 62 62 59 59 53 47 49 46 41 38 40 38 29 26 27 23 20 22 24 19 22 21 20 22 26 27 29 29 28 27 25 24 20 18 19 17 15
37 49 54 56 67 60 58 61 61 61 58 55 49 46 47 43 39 45 35 35 30 26 32 32 27 30 32 27 23 23 21 23 27 32 30 27 26 25 22 20 19 21 19 17
30 45 54 57 68 58 48 58 58 61 58 57 54 46 47 48 47 51 45 36 35 36 32 28 22 26 32 32 29 24 24 23 27 33 30 30 28 27 25 25 24 25 23 20
38 46 54 58 71 53 46 59 60 57 60 56 54 52 53 51 52 52 52 48 44 37 32 29 24 29 29 31 30 31 28 20 21 35 38 37 34 31 30 31 29 28 26 24
41 55 57 59 75 48 45 59 59 58 60 55 57 58 59 60 55 52 49 48 46 42 37 32 26 27 28 29 29 29 31 26 25 28 38 38 37 35 34 33 31 31 29 26
41 56 54 58 71 48 49 59 55 57 62 57 57 61 61 65 60 54 51 45 42 38 37 31 28 27 27 29 31 34 33 32 27 30 33 40 33 32 35 35 36 36 34 31
40 43 59 52 58 57 62 58 56 58 61 61 60 64 63 65 63 60 55 49 44 43 39 32 31 30 28 29 32 31 30 29 30 37 39 38 39 40 43 44 44 43 40 39
27 33 63 58 48 65 58 58 55 57 62 64 58 66 68 65 61 63 59 55 47 44 40 37 33 32 32 31 31 35 36 38 39 39 42 47 47 43 41 43 46 47 49 48
8 15 38 62 70 47 51 56 69 47 65 63 64 62 70 68 64 63 61 59 54 50 45 42 38 37 38 39 39 37 35 34 36 42 43 48 50 49 49 51 52 55 55 53
Wind_Direction
240 236 233 245 247 238 239 233 230 228 229 234 237 231 212 189 198 205 154 172 276 289 260 231 218 205 204 184 188 182 173 174 173 171 165 163 158 150 150 151 151 134 125 101
236 233 230 227 225 226 233 231 228 228 232 234 241 232 222 210 192 190 192 198 297 265 223 266 226 211 203 192 184 184 180 174 176 180 173 168 162 159 161 164 160 146 134 110
233 231 233 229 228 223 226 226 224 222 233 235 235 230 219 207 205 196 175 158 140 72 259 250 209 205 205 199 188 183 182 181 187 189 175 168 166 167 170 169 164 155 135 112
232 224 227 225 224 225 224 226 226 216 221 233 237 241 222 212 208 175 168 152 154 181 336 217 194 207 200 205 193 188 183 186 189 185 174 173 179 179 170 172 166 160 138 127
233 223 228 224 222 225 214 222 221 222 217 221 228 236 222 209 205 191 176 175 173 165 308 208 198 199 191 203 197 192 189 185 186 184 177 179 182 179 179 177 177 168 158 145
229 219 221 220 218 224 210 215 216 216 219 221 223 234 234 213 209 178 176 184 173 171 200 238 200 199 198 198 200 193 190 189 189 187 176 177 183 186 187 182 183 182 167 160
225 221 215 220 214 213 210 212 211 213 215 223 215 232 239 214 207 199 184 176 161 172 201 222 203 198 193 198 204 198 190 187 188 188 178 178 183 187 191 190 189 179 170 172
221 217 215 213 216 217 211 213 215 214 216 221 217 231 237 217 203 202 191 176 184 182 194 186 192 202 193 189 192 199 188 189 186 187 184 179 181 188 190 191 187 185 182 180
219 215 212 212 213 212 215 216 219 221 223 222 217 228 230 221 200 200 190 187 187 189 178 179 184 205 200 189 187 192 186 186 185 189 190 183 185 190 191 194 192 192 190 196
220 214 207 211 209 206 214 220 216 217 222 224 221 224 225 216 207 206 199 195 190 191 177 189 177 200 200 193 190 190 187 184 184 189 187 184 187 196 199 198 198 195 191 202
226 217 206 207 206 204 207 213 215 223 225 227 225 225 222 212 210 209 208 195 180 198 185 187 181 195 195 197 194 194 191 194 191 185 183 183 189 198 204 201 201 207 219 237
225 221 204 208 204 201 206 214 216 215 216 221 220 216 212 214 211 207 208 198 199 197 195 192 178 190 192 197 196 192 194 192 192 188 185 186 191 195 197 200 209 225 242 260
216 228 213 206 204 199 203 208 214 219 217 218 219 208 213 210 207 212 215 209 208 204 195 199 191 191 194 197 192 191 190 187 192 191 190 189 190 194 199 202 211 222 230 233
210 222 220 200 198 201 201 202 206 213 213 212 208 198 198 208 206 213 217 226 223 207 196 187 190 189 198 194 191 190 191 191 192 195 192 191 190 193 199 203 199 201 213 209
208 216 221 200 195 200 201 202 205 211 212 216 201 190 183 188 190 193 203 218 224 195 194 194 204 192 197 197 190 193 194 190 194 198 193 191 193 195 199 197 198 213 223 218
206 215 217 201 193 196 200 203 206 210 213 213 197 181 167 176 194 200 205 212 217 200 194 201 195 197 200 205 193 195 194 190 190 194 191 195 198 198 194 195 206 217 228 221
201 206 212 200 195 193 197 202 206 206 208 207 192 167 179 188 189 196 197 193 192 190 189 191 195 200 203 210 204 199 197 195 190 190 194 198 199 195 194 200 208 215 216 215
198 197 207 201 194 205 201 202 203 204 204 199 182 174 183 190 185 189 188 192 193 201 205 211 217 210 207 226 219 213 207 198 199 197 195 196 194 194 195 196 203 210 214 211
196 191 195 194 193 200 204 205 202 202 204 196 185 184 184 187 184 185 176 199 200 200 203 207 207 207 217 218 214 219 219 207 202 196 193 186 180 186 185 185 194 201 201 206
187 180 183 192 192 195 199 201 198 202 207 197 193 187 186 186 187 190 184 191 205 205 202 205 209 211 209 207 213 214 230 220 203 201 187 181 191 194 190 196 201 204 198 203
165 175 176 188 190 192 189 197 195 196 202 198 194 187 186 190 192 195 194 196 203 208 216 210 216 211 214 213 211 219 229 222 223 206 194 191 198 198 198 202 205 206 209 216
160 173 175 188 194 188 184 194 194 197 201 195 193 187 191 189 195 202 204 204 207 213 219 220 221 208 212 219 219 222 231 225 219 220 210 200 205 207 210 211 211 215 222 224
159 181 175 190 196 192 189 194 189 197 200 192 191 191 193 195 197 204 207 213 218 223 230 232 223 212 206 212 221 223 225 225 221 224 220 211 215 218 220 221 224 227 228 232
163 167 181 192 198 204 197 195 192 192 198 195 195 192 199 199 199 204 208 211 219 226 232 231 226 225 217 208 202 202 209 217 216 211 215 213 219 225 221 223 228 230 230 233
152 158 175 187 191 209 214 203 196 203 198 201 199 199 201 200 200 204 210 211 216 221 225 230 231 235 235 226 221 213 210 211 212 214 217 219 224 224 227 226 229 232 234 234
119 188 171 184 198 192 201 209 206 212 200 207 208 210 208 205 203 205 210 212 213 220 221 224 227 230 232 233 234 234 229 224 220 219 221 222 225 227 229 230 230 232 234 237
Height
5810 5812 5819 5832 5833 5836 5838 5843 5847 5853 5856 5859 5864 5867 5869 5871 5874 5880 5880 5881 5883 5882 5886 5886 5887 5890 5892 5896 5901 5904 5908 5911 5916 5920 5923 5925 5928 5930 5933 5936 5938 5939 5940 5941
5799 5804 5820 5818 5820 5825 5829 5836 5843 5846 5849 5854 5857 5863 5864 5866 5870 5874 5877 5879 5879 5878 5883 5884 5887 5889 5892 5895 5898 5903 5906 5909 5914 5918 5921 5925 5928 5932 5935 5937 5939 5940 5941 5942
5792 5805 5805 5809 5813 5818 5821 5827 5838 5845 5843 5846 5849 5852 5856 5862 5866 5869 5874 5874 5875 5877 5879 5880 5883 5888 5890 5895 5898 5901 5905 5908 5913 5918 5921 5926 5929 5933 5935 5937 5938 5940 5940 5941
5778 5794 5792 5798 5803 5811 5815 5828 5832 5837 5837 5837 5841 5843 5851 5856 5862 5866 5871 5870 5874 5874 5875 5878 5879 5885 5890 5895 5897 5899 5902 5907 5911 5917 5920 5923 5927 5930 5933 5936 5939 5940 5940 5941
5770 5784 5782 5788 5801 5804 5818 5818 5822 5830 5830 5833 5832 5831 5842 5848 5853 5862 5867 5869 5873 5874 5874 5876 5879 5881 5886 5892 5896 5899 5902 5905 5910 5915 5917 5921 5926 5929 5932 5935 5938 5940 5941 5942
5759 5763 5771 5784 5791 5791 5806 5806 5810 5815 5819 5814 5823 5823 5829 5844 5853 5858 5861 5866 5869 5872 5873 5874 5876 5877 5884 5890 5894 5898 5901 5904 5909 5913 5914 5919 5924 5927 5930 5933 5936 5939 5941 5942
5738 5751 5759 5766 5772 5778 5787 5791 5795 5798 5797 5797 5821 5813 5820 5840 5848 5853 5857 5864 5866 5868 5871 5873 5874 5878 5883 5888 5893 5897 5900 5902 5906 5912 5913 5916 5920 5925 5929 5932 5934 5937 5939 5942
5717 5734 5747 5751 5759 5770 5776 5780 5784 5785 5789 5798 5816 5801 5818 5836 5845 5848 5853 5854 5858 5861 5867 5871 5874 5878 5881 5884 5890 5895 5897 5902 5904 5910 5912 5914 5918 5923 5926 5929 5932 5935 5938 5940
5699 5717 5726 5736 5751 5761 5765 5768 5783 5786 5790 5796 5804 5804 5819 5828 5838 5842 5846 5847 5850 5857 5861 5868 5873 5876 5879 5882 5887 5892 5894 5898 5901 5906 5909 5912 5916 5921 5924 5927 5930 5933 5936 5938
5684 5700 5715 5726 5731 5742 5756 5767 5772 5773 5778 5782 5791 5797 5808 5822 5833 5839 5844 5846 5849 5853 5858 5863 5869 5872 5876 5879 5884 5888 5891 5895 5898 5902 5906 5909 5914 5919 5922 5925 5928 5931 5935 5937
5668 5678 5703 5708 5714 5739 5745 5751 5759 5769 5773 5776 5786 5791 5806 5818 5828 5835 5841 5847 5850 5855 5855 5859 5864 5869 5873 5876 5882 5887 5888 5892 5896 5898 5902 5907 5912 5917 5921 5924 5927 5930 5933 5935
5655 5662 5687 5698 5714 5728 5732 5743 5750 5756 5762 5768 5777 5787 5801 5812 5822 5829 5836 5842 5846 5851 5856 5857 5859 5865 5869 5873 5879 5883 5886 5889 5893 5895 5899 5904 5909 5914 5919 5922 5925 5929 5931 5932
5645 5650 5671 5692 5705 5711 5716 5732 5746 5754 5760 5765 5774 5787 5795 5803 5811 5820 5827 5834 5839 5845 5851 5854 5855 5860 5864 5870 5874 5878 5881 5885 5889 5892 5896 5901 5907 5912 5917 5920 5924 5927 5929 5930
5632 5639 5654 5677 5691 5696 5708 5723 5734 5744 5749 5756 5765 5780 5788 5796 5807 5814 5820 5824 5829 5835 5842 5848 5851 5856 5860 5866 5869 5874 5878 5881 5885 5890 5894 5898 5904 5909 5913 5917 5922 5925 5927 5928
5622 5632 5641 5665 5677 5689 5704 5717 5725 5731 5743 5750 5767 5774 5781 5791 5802 5809 5812 5817 5821 5829 5835 5841 5847 5851 5857 5862 5865 5869 5873 5876 5881 5887 5891 5896 5901 5905 5909 5915 5919 5922 5924 5926
5613 5625 5636 5661 5678 5688 5699 5710 5717 5727 5737 5748 5762 5770 5780 5789 5794 5800 5806 5812 5815 5821 5829 5837 5843 5848 5853 5859 5862 5865 5869 5874 5878 5884 5888 5892 5897 5902 5907 5912 5916 5920 5922 5924
5607 5618 5631 5657 5671 5680 5691 5697 5706 5721 5730 5744 5756 5768 5773 5780 5787 5793 5801 5807 5811 5818 5825 5831 5839 5845 5850 5855 5859 5862 5866 5870 5874 5879 5883 5889 5895 5900 5904 5908 5912 5916 5919 5921
5605 5611 5625 5649 5664 5670 5680 5690 5702 5711 5721 5737 5750 5759 5766 5776 5783 5790 5796 5802 5806 5813 5822 5829 5835 5841 5847 5851 5855 5858 5861 5866 5871 5875 5880 5886 5892 5896 5901 5905 5909 5912 5915 5918
5601 5607 5623 5641 5654 5665 5676 5683 5695 5707 5718 5732 5744 5752 5760 5771 5777 5783 5788 5797 5804 5811 5819 5826 5831 5836 5841 5846 5850 5854 5858 5863 5867 5872 5877 5883 5888 5893 5898 5902 5905 5908 5911 5913
5597 5606 5621 5635 5648 5659 5670 5678 5692 5705 5713 5724 5735 5745 5754 5763 5768 5776 5781 5791 5799 5806 5813 5819 5824 5829 5834 5841 5846 5850 5855 5861 5866 5870 5876 5880 5884 5888 5894 5897 5900 5902 5906 5908
5594 5606 5619 5630 5646 5659 5662 5673 5685 5698 5707 5716 5728 5738 5746 5758 5764 5769 5775 5783 5792 5800 5806 5812 5818 5823 5829 5836 5842 5847 5851 5858 5863 5866 5870 5874 5878 5883 5887 5890 5893 5897 5900 5903
5595 5605 5616 5627 5644 5654 5659 5669 5682 5690 5699 5713 5723 5732 5740 5745 5755 5762 5770 5777 5786 5794 5800 5806 5812 5817 5824 5832 5838 5844 5848 5853 5858 5861 5866 5870 5874 5877 5881 5885 5888 5892 5895 5898
5601 5610 5614 5628 5642 5648 5657 5665 5676 5685 5696 5707 5717 5725 5732 5740 5748 5755 5763 5770 5777 5785 5791 5799 5805 5812 5819 5825 5831 5837 5842 5848 5853 5857 5862 5865 5870 5875 5879 5882 5884 5886 5889 5892
5603 5608 5617 5631 5641 5647 5654 5663 5672 5679 5691 5702 5711 5719 5726 5734 5742 5749 5758 5765 5772 5779 5786 5792 5798 5804 5811 5818 5822 5828 5833 5839 5844 5850 5855 5859 5863 5866 5869 5873 5875 5878 5881 5884
5606 5612 5614 5625 5638 5646 5651 5662 5673 5679 5687 5697 5706 5713 5719 5728 5737 5744 5750 5759 5766 5773 5780 5787 5792 5797 5802 5808 5814 5819 5824 5830 5834 5839 5843 5848 5852 5856 5860 5864 5867 5869 5871 5872
5611 5613 5618 5624 5638 5640 5652 5661 5667 5674 5682 5691 5700 5709 5713 5720 5728 5737 5745 5751 5759 5766 5773 5780 5785 5791 5796 5800 5804 5810 5815 5820 5825 5830 5834 5838 5843 5846 5850 5852 5855 5857 5860 5863